{"data":{"norad_id":57053,"intl_designator":"2023-088F","name":"STARLINK-5865","alt_names":[],"object_type":"PAYLOAD","status":"ACTIVE","operator":null,"country":"US","launch_date":"2023-06-22","launch_site_code":"AFWTR","launch_vehicle":null,"mission":null,"orbit_class":"UNKNOWN","rcs_meters":null,"size_class":null,"mass_kg":null,"dimensions":null,"purposes":["comms"],"wikipedia_slug":null,"has_3d_model":false,"image_url":null,"decayed_at":null,"tle_current":{"epoch":"2026-05-25T00:21:02.107008Z","epoch_age_seconds":84349,"freshness":"FRESH","line1":"1 57053U 23088F   26145.01460772 -.00000173  00000+0  32455-5 0  9991","line2":"2 57053  43.0038  39.7628 0001148 271.7552  88.3168 15.27577590162009","mean_motion":15.2757759,"eccentricity":0.0001148,"inclination_deg":43.0038,"raan_deg":39.7628,"arg_perigee_deg":271.7552,"mean_anomaly_deg":88.3168,"bstar":3.2455e-6,"rev_number":16200,"period_min":94.26689743465,"perigee_km":482.26864746386,"apogee_km":483.8439774484,"semimajor_km":6861.1933124561,"source":"CELESTRAK","updated_at":"2026-05-25T13:38:18.208696Z"}}}